COSMOS 2251 DEB, 34346

Orbit data source: Space-Track

COSMOS 2251 DEB, 34346 is space debris in LEO originally from a launch on Wed, 16 Jun 1993 UTC launched from the Plesetsk Missile And Space Complex (PKMTR). The debris from Iridium 33, an American commercial communications satellite, has been tracked extensively since its accidental collision with the defunct Russian satellite Cosmos 2251 in 2009. This event, occurring at high speed in low Earth orbit (LEO), generated thousands of pieces of space debris, significantly increasing the risk of further collisions. The Iridium 33 debris cloud has impacted space traffic management and orbital debris mitigation strategies, making it a subject of ongoing study in space situational awareness.

Loading next visibility...
Identifier
34346, 1993-036PU
Orbit
LEO
Country
Flag of CISCIS
Related business
Manufacturer
Unknown
Mission
Spacecraft
Bus & Motor
Unknown
Mass
Unknown
Launch date (UTC)
1993-06-16 (33 years ago)
Launch vehicle
Unknown
Launch site
Plesetsk Missile And Space Complex (PKMTR)
Object type
Payload
Rocket body
Debris
Shape & HBR
Unknown shape, 0.1 m
Radar Cross Section
Small (<0.1 m²)

Expand to show TLE details & history
Last TLE update: 23 hours ago

TLE from 23 hours ago
0 COSMOS 2251 DEB
1 34346U 93036PU  25351.89736456  .00001356  00000-0  78414-3 0  9997
2 34346  73.9945 303.2966 0206176 120.9850 303.0993 13.99708134854824
Epoch: 2025-12-17T21:32Z
TLE epoch observation values (Epoch: 2025-12-17T21:32:12.297Z)
Latitude
58.24512°
Longitude
-79.06394°
Altitude
824.577 km
Speed
7.487 km/s
True Right ascension
22h 02m 59s
True Declination
58° 05' 33"
Sunlit
Object was in daylight at epoch
Visualization orbit readout
Latitude
Unknown
Longitude
Unknown
Altitude
Unknown
Speed
Unknown
Apparent Right ascension
Unknown
Apparent Declination
Unknown
Sunlit
N/A
Visualization observer readout
Local Sidereal Time
19:05:18
Azimuth
Unknown
Elevation
Unknown
Doppler factor
Unknown
Orbital elements
Apogee altitude
1,042.375 km
Perigee altitude
742.57 km
Semi-major axis
7,270.609 km
Eccentricity
0.02062
Inclination
73.9945°
RAAN
303.2966°
Arg. of periapsis
120.985°
True anomaly
301.09226°
Mean anomaly
303.0993°
Eccentric anomaly
302.09858°
Mean motion
3.50096 °/min
Orbital period
102.83 mins
BSTAR
0.00078414
Loading maneuver chart data...
Computing Atmospheric mass density...

Documentation

Showing up to 5 results
|